FENGYUN 1C DEB, 30052

Orbit data source: Space-Track

FENGYUN 1C DEB, 30052 is space debris in SSO originally from a launch on Mon, 10 May 1999 UTC launched from the Taiyaun Space Center, China (TSC). Fengyun 1C debris stems from the Chinese weather satellite Fengyun-1C, which was intentionally destroyed by a Chinese anti-satellite missile in 2007. This event dramatically increased the amount of space debris, with thousands of trackable fragments posing hazards to satellites and human spaceflight. The Fengyun 1C debris cloud has become a focal point in discussions about space sustainability and the need for international regulations to prevent the creation of new debris.

Loading next visibility...
Identifier
30052, 1999-025PD
Orbit
SSO
Country
Flag of CNCN / PRC
Related business
Manufacturer
Unknown
Mission
Spacecraft
Bus & Motor
Unknown
Mass
Unknown
Launch date (UTC)
1999-05-10 (27 years ago)
Launch vehicle
Unknown
Launch site
Taiyaun Space Center, China (TSC)
Object type
Payload
Rocket body
Debris
Shape & HBR
Unknown shape, 0.1 m
Radar Cross Section
Medium (>0.1 m² and <1 m²)

Expand to show TLE details & history
Last TLE update: 7 hours ago

TLE from 7 hours ago
0 FENGYUN 1C DEB
1 30052U 99025PD  26169.63037755  .00000367  00000-0  32526-3 0  9992
2 30052  99.2792 194.9408 0290443  99.9158  16.4881 13.73190844971339
Epoch: 2026-06-18T15:07Z
TLE epoch observation values (Epoch: 2026-06-18T15:07:44.620Z)
Latitude
61.30003°
Longitude
-101.59874°
Altitude
793.879 km
Speed
7.566 km/s
True Right ascension
02h 08m 49s
True Declination
61° 09' 20"
Sunlit
Object was in daylight at epoch
Visualization orbit readout
Latitude
Unknown
Longitude
Unknown
Altitude
Unknown
Speed
Unknown
Apparent Right ascension
Unknown
Apparent Declination
Unknown
Sunlit
N/A
Visualization observer readout
Local Sidereal Time
08:32:24
Azimuth
Unknown
Elevation
Unknown
Doppler factor
Unknown
Orbital elements
Apogee altitude
1,199.252 km
Perigee altitude
771.515 km
Semi-major axis
7,363.52 km
Eccentricity
0.02904
Inclination
99.2792°
RAAN
194.9408°
Arg. of periapsis
99.9158°
True anomaly
17.46668°
Mean anomaly
16.4881°
Eccentric anomaly
16.97392°
Mean motion
3.43491 °/min
Orbital period
104.81 mins
BSTAR
0.00032526
Loading maneuver chart data...
Computing Atmospheric mass density...

Documentation

Showing up to 5 results
|